Weather Roundup
Issued by NWS Springfield, MO

Home | Current Version | Previous Version | Text Only | Print | Product List | Glossary On
Versions: 1 2 3 4 5 6 7 8 9 10 11 12 13 14 15 16 17 18 19 20 21 22 23 24 25 26 27 28 29 30 31 32 33 34 35 36 37 38 39 40 41 42 43 44 45 46 47 48 49 50
000
NZUS99 KSGF 241607
HRRSGF

HOURLY WEATHER
NATIONAL WEATHER SERVICE SPRINGFIELD MO
1100 AM CDT FRI OCT 24 2014

......SGF CWA......

CITY           SKY/WX    TMP DP  RH WIND       PRES   REMARKS
SPRINGFIELD    MOSUNNY   64  57  78 SW6       30.13S
JOPLIN         MOSUNNY   65  56  72 SW12      30.12S
WEST PLAINS    MOSUNNY   63  53  70 SW6       30.16S
ROLLA          PTSUNNY   61  54  77 W6        30.12S
OSAGE BEACH    CLOUDY    64  54  68 SW7       30.13S
BRANSON        CLOUDY    64  57  77 CALM      30.16S

......SURROUNDING SGF CWA......

CITY           SKY/WX    TMP DP  RH WIND       PRES   REMARKS
CHANUTE        PTSUNNY   65  58  78 S16       30.09S
PARSONS        PTSUNNY   67  58  72 SW12      30.11F
COFFEYVILLE    MOSUNNY   67  58  72 S10       30.10F
EMPORIA        CLOUDY    65  60  84 S12       30.05S
GROVE OK       MOSUNNY   68  61  77 SW7       30.14S
ROGERS AR      MOSUNNY   66  55  67 SW14      30.16S
SILOAM SPRINGS MOSUNNY   66  54  63 SW10      30.17S
HARRISON AR    PTSUNNY   69  57  65 W7        30.16S
NEAR YELLVILLE SUNNY     61  50  67 CALM      30.17R

......KANSAS AND MISSOURI......

CITY           SKY/WX    TMP DP  RH WIND       PRES   REMARKS
KANSAS CTY INT CLOUDY    62  59  90 SW9       30.04S
DOWNTOWN KC    PTSUNNY   66  58  75 SW8       30.04F
COLUMBIA       PTSUNNY   63  59  87 SW7       30.11F
SEDALIA        PTSUNNY   66  56  70 S13       30.10S
ST JOSEPH      CLOUDY    63  60  90 S10       30.02F
ST LOUIS       PTSUNNY   63  55  75 W3        30.13S
SPIRIT OF STL  PTSUNNY   63  55  75 CALM      30.12S
KIRKSVILLE     FOG       58  58 100 S9        30.08F VSB 1/4
WICHITA        PTSUNNY   67  59  75 SW12      30.07S
TOPEKA         PTSUNNY   65  61  87 SW8       30.04R
OLATHE         PTSUNNY   63  59  87 SW10      30.05S

......TENNESSEE......

CITY           SKY/WX    TMP DP  RH WIND       PRES   REMARKS
MEMPHIS        MOSUNNY   65  45  48 NW6       30.16R
NASHVILLE      MOSUNNY   63  44  50 N6        30.15S

......ARKANSAS.......

CITY           SKY/WX    TMP DP  RH WIND       PRES   REMARKS
FAYETTEVILLE   MOSUNNY   67  57  70 SW13      30.16F
FT SMITH       SUNNY     63  54  72 NE3       30.17R
LITTLE ROCK    MOSUNNY   67  49  52 W5        30.17F

......OKLAHOMA.......

CITY           SKY/WX    TMP DP  RH WIND       PRES   REMARKS
TULSA          PTSUNNY   69  56  62 S9        30.11F
PONCA CITY     SUNNY     68  58  70 VRB6      30.09F
MCALESTER      SUNNY     69  54  58 S9G16     30.17R
OKLAHOMA CITY  MOSUNNY   70  59  68 S9        30.13R

......IOWA............

CITY           SKY/WX    TMP DP  RH WIND       PRES   REMARKS
DES MOINES     CLOUDY    62  60  93 S14       29.97S FOG
QUAD CITIES    CLOUDY    55  52  89 S9        30.07R FOG

......ILLINOIS........

CITY           SKY/WX    TMP DP  RH WIND       PRES   REMARKS
QUINCY         FOG       56  55  97 SW8       30.10R VSB 1/4
CHICAGO        PTSUNNY   58  47  66 VRB6      30.05F




USA.gov is the U.S. government's official web portal to all federal, state and local government web resources and services.